Location: Gebenbach
(49.5378°N, 11.8735°E)
Time: 05:06:02
(UTC+00:00)

Cosmos 2369 - Pass Details

Date: 29 October 2020
Orbit: 840 x 854 km, 71.0° (Epoch: 25 November)

Event Time Altitude Azimuth Distance (km) Brightness Sun altitude
Rises 18:28:02 0° 215° (SW) 3,411 7.2 -25.3°
Reaches altitude 10° 18:30:30 10° 218° (SW) 2,478 6.5 -25.7°
Maximum altitude 18:36:10 69° 301° (WNW) 913 3.9 -26.6°
Enters shadow 18:39:12 28° 18° (NNE) 1,536 4.9 -27.1°
